Weather History for Muscle Shoals, AL

Change the Weather History Date:

Monday, November 19, 2012

  Actual Average Record
Temperature  
Mean Temperature 51 °F 51 °F  
Max Temperature 67 °F 62 °F 83 °F (1906)
Min Temperature 34 °F 40 °F 17 °F (1903)
Degree Days  
Heating Degree Days 14 14  
Month to date heating degree days 263 217  
Since 1 July heating degree days 438 385  
Cooling Degree Days 0 0  
Month to date cooling degree days 0 4  
Year to date cooling degree days 2163 1868  
Moisture  
Dew Point 39 °F    
Average Humidity 68    
Maximum Humidity 92    
Minimum Humidity 44    
Precipitation  
Precipitation 0.00 in 0.17 in 3.15 in (1944)
Month to date precipitation 1.41 2.67  
Year to date precipitation 37.41 45.53  
Snow  
Snow 0.00 in - - ()
Month to date snowfall 0.0  
Since 1 July snowfall 0.0  
Since 1 September snowfall 0.0  
Snow Depth 0.00 in    
Sea Level Pressure  
Sea Level Pressure 30.28 in    
Wind  
Wind Speed 1 mph (NE)    
Max Wind Speed 7 mph    
Max Gust Speed 9 mph    
Visibility 9 miles    
Events      
T = Trace of Precipitation, MM = Missing Value Source: NWS Daily Summary

Daily Weather History Graph

Daily Weather History Graph

Search for Another Location

Airport:

Trip Planner

Search our weather history database for the weather conditions in past years. The results will help you decide how hot, cold, wet, or windy it might be!

Date:

Astronomy

Nov. 19, 2012 Rise Set
Actual Time 6:28 AM CST 4:42 PM CST
Civil Twilight 6:01 AM CST 5:09 PM CST
Nautical Twilight 5:30 AM CST 5:40 PM CST
Astronomical Twilight 5:00 AM CST 6:10 PM CST
Moon 11:36 AM CST (11/19) 11:03 PM CST (11/19)
Length of Visible Light 11h 08m
Length of Day
10h 14m
Waxing Crescent, 41% of the Moon is Illuminated
Nov 19
Waxing Crescent
Nov 20
First Quarter
Nov 28
Full
Dec 6
Last Quarter
Dec 13
New

Hourly Weather History & Observations

Time (CST) Temp. Dew Point Humidity Pressure Visibility Wind Dir Wind Speed Gust Speed Precip Events Conditions
12:53 AM 37.0 °F 33.1 °F 86% 30.34 in 10.0 mi Calm Calm - N/A   Clear
1:53 AM 37.0 °F 33.1 °F 86% 30.34 in 9.0 mi Calm Calm - N/A   Clear
2:53 AM 36.0 °F 33.1 °F 89% 30.32 in 8.0 mi Calm Calm - N/A   Clear
3:53 AM 36.0 °F 32.0 °F 86% 30.32 in 10.0 mi Calm Calm - N/A   Clear
4:53 AM 34.0 °F 30.9 °F 89% 30.33 in 7.0 mi Calm Calm - N/A   Clear
5:53 AM 35.1 °F 32.0 °F 89% 30.33 in 10.0 mi Calm Calm - N/A   Clear
6:53 AM 36.0 °F 33.1 °F 89% 30.34 in 7.0 mi Calm Calm - N/A   Clear
7:53 AM 41.0 °F 36.0 °F 82% 30.35 in 8.0 mi Calm Calm - N/A   Clear
8:53 AM 46.0 °F 39.9 °F 79% 30.36 in 8.0 mi Calm Calm - N/A   Clear
9:53 AM 53.1 °F 41.0 °F 64% 30.35 in 10.0 mi Calm Calm - N/A   Clear
10:53 AM 60.1 °F 43.0 °F 53% 30.34 in 10.0 mi Calm Calm - N/A   Clear
11:53 AM 63.0 °F 45.0 °F 52% 30.30 in 10.0 mi WNW 3.5 mph - N/A   Clear
12:53 PM 64.9 °F 43.0 °F 45% 30.28 in 10.0 mi Calm Calm - N/A   Clear
1:53 PM 64.9 °F 42.1 °F 43% 30.26 in 10.0 mi Calm Calm - N/A   Clear
2:53 PM 64.9 °F 42.1 °F 43% 30.23 in 10.0 mi Calm Calm - N/A   Clear
3:53 PM 64.0 °F 43.0 °F 46% 30.22 in 10.0 mi ENE 4.6 mph - N/A   Clear
4:53 PM 57.9 °F 42.1 °F 56% 30.22 in 10.0 mi ENE 3.5 mph - N/A   Clear
5:53 PM 52.0 °F 41.0 °F 66% 30.22 in 10.0 mi Calm Calm - N/A   Clear
6:53 PM 51.1 °F 43.0 °F 74% 30.25 in 10.0 mi Calm Calm - N/A   Mostly Cloudy
7:53 PM 50.0 °F 43.0 °F 77% 30.24 in 10.0 mi Calm Calm - N/A   Mostly Cloudy
8:53 PM 48.0 °F 42.1 °F 80% 30.23 in 10.0 mi Calm Calm - N/A   Partly Cloudy
9:53 PM 48.9 °F 42.1 °F 77% 30.22 in 10.0 mi Calm Calm - N/A   Partly Cloudy
10:53 PM 46.9 °F 42.1 °F 83% 30.21 in 10.0 mi Calm Calm - N/A   Clear
11:53 PM 44.1 °F 41.0 °F 89% 30.21 in 8.0 mi Calm Calm - N/A   Clear